Terug naar catalogus

OPS 9381

GGTS

ActiefNavigatieMEO
NORAD 2207·PAYLOAD·🇺🇸 United States

Gelanceerd Jun 16, 1966 vanaf Cape Canaveral Space Force Station

Loading…

Volgende Passages (komende 24 uur)

TLE

VersSource: Space-Track

Epoch: Sep 13, 2026, 19:33 UTC

1 02207U 66053A   26256.81478824 -.00000102  00000-0  00000-0 0  9998
2 02207   8.8074  42.5629 0028099 235.9070 126.9258  1.08010575236924

Volg OPS 9381 in realtime met AllMySat

Download on the App Store